Time,TemperatureF,DewpointF,PressureIn,WindDirection,WindDirectionDegrees,WindSpeedMPH,WindSpeedGustMPH,Humidity,HourlyPrecipIn,Conditions,Clouds,dailyrainin,SoftwareType,DateUTC
2013-08-28 00:03:00,76.9,68.4,29.85,West,269,3.1,3.5,75,0.00,,,0.00,WeatherDisplay:10.37,2013-08-28 05:03:00,
2013-08-28 00:09:00,76.5,68.4,29.85,West,264,2.5,3.5,76,0.00,,,0.00,WeatherDisplay:10.37,2013-08-28 05:09:00,
2013-08-28 00:14:00,76.2,68.1,29.85,West,259,2.7,4.6,76,0.00,,,0.00,WeatherDisplay:10.37,2013-08-28 05:14:00,
2013-08-28 00:19:00,76.1,68.0,29.85,WSW,240,2.3,3.5,76,0.00,,,0.00,WeatherDisplay:10.37,2013-08-28 05:19:00,
2013-08-28 00:24:00,76.0,68.3,29.85,West,262,2.1,3.5,77,0.00,,,0.00,WeatherDisplay:10.37,2013-08-28 05:24:00,
2013-08-28 00:29:00,75.7,68.0,29.85,West,269,2.2,3.5,77,0.00,,,0.00,WeatherDisplay:10.37,2013-08-28 05:29:00,
2013-08-28 00:35:00,75.4,68.1,29.85,West,270,1.7,2.3,78,0.00,,,0.00,WeatherDisplay:10.37,2013-08-28 05:35:00,
2013-08-28 00:40:00,75.1,67.8,29.86,West,271,2.2,2.3,78,0.00,,,0.00,WeatherDisplay:10.37,2013-08-28 05:40:00,
2013-08-28 00:45:00,75.0,68.0,29.86,WSW,257,1.8,2.3,79,0.00,,,0.00,WeatherDisplay:10.37,2013-08-28 05:45:00,
2013-08-28 00:50:00,74.8,67.8,29.86,WSW,254,2.0,3.5,79,0.00,,,0.00,WeatherDisplay:10.37,2013-08-28 05:50:00,
2013-08-28 00:55:00,74.8,67.8,29.86,West,270,2.0,2.3,79,0.00,,,0.00,WeatherDisplay:10.37,2013-08-28 05:55:00,
2013-08-28 01:00:00,74.8,67.8,29.86,West,269,2.0,4.0,79,0.00,,,0.00,WeatherDisplay:10.37,2013-08-28 06:00:00,
2013-08-28 01:06:00,74.8,67.8,29.85,West,280,2.3,3.5,79,0.00,,,0.00,WeatherDisplay:10.37,2013-08-28 06:06:00,
2013-08-28 01:11:00,74.7,67.8,29.85,WSW,248,2.8,3.5,79,0.00,,,0.00,WeatherDisplay:10.37,2013-08-28 06:11:00,
2013-08-28 01:16:00,75.0,67.7,29.85,WSW,245,3.1,6.9,78,0.00,,,0.00,WeatherDisplay:10.37,2013-08-28 06:16:00,
2013-08-28 01:22:00,75.3,67.6,29.85,WSW,253,4.1,4.6,77,0.00,,,0.00,WeatherDisplay:10.37,2013-08-28 06:22:00,
2013-08-28 01:27:00,75.5,67.8,29.85,WSW,257,3.3,6.0,77,0.00,,,0.00,WeatherDisplay:10.37,2013-08-28 06:27:00,
2013-08-28 01:33:00,75.8,67.7,29.85,West,270,3.9,4.6,76,0.00,,,0.00,WeatherDisplay:10.37,2013-08-28 06:33:00,
2013-08-28 01:38:00,75.7,67.6,29.85,West,260,4.7,8.1,76,0.00,,,0.00,WeatherDisplay:10.37,2013-08-28 06:38:00,
2013-08-28 01:43:00,76.0,67.5,29.85,West,269,5.5,8.1,75,0.00,,,0.00,WeatherDisplay:10.37,2013-08-28 06:43:00,
2013-08-28 01:49:00,76.2,67.7,29.85,WSW,256,4.3,6.9,75,0.00,,,0.00,WeatherDisplay:10.37,2013-08-28 06:49:00,
2013-08-28 01:54:00,76.3,67.8,29.85,West,275,4.6,8.1,75,0.00,,,0.00,WeatherDisplay:10.37,2013-08-28 06:54:00,
2013-08-28 01:59:00,76.4,67.9,29.85,West,264,5.3,5.3,75,0.00,,,0.00,WeatherDisplay:10.37,2013-08-28 06:59:00,
2013-08-28 02:04:00,76.3,67.8,29.85,West,272,3.5,4.6,75,0.00,,,0.00,WeatherDisplay:10.37,2013-08-28 07:04:00,
2013-08-28 02:09:00,76.2,67.7,29.85,West,274,4.5,5.0,75,0.00,,,0.00,WeatherDisplay:10.37,2013-08-28 07:09:00,
2013-08-28 02:15:00,75.9,67.8,29.85,WNW,284,3.7,4.6,76,0.00,,,0.00,WeatherDisplay:10.37,2013-08-28 07:15:00,
2013-08-28 02:20:00,75.6,67.9,29.85,West,273,2.6,3.5,77,0.00,,,0.00,WeatherDisplay:10.37,2013-08-28 07:20:00,
2013-08-28 02:25:00,75.4,67.7,29.85,WNW,283,3.4,5.8,77,0.00,,,0.00,WeatherDisplay:10.37,2013-08-28 07:25:00,
2013-08-28 02:30:00,75.1,67.8,29.85,WNW,285,2.9,3.5,78,0.00,,,0.00,WeatherDisplay:10.37,2013-08-28 07:30:00,
2013-08-28 02:35:00,74.8,67.5,29.85,West,263,3.1,4.0,78,0.00,,,0.00,WeatherDisplay:10.37,2013-08-28 07:35:00,
2013-08-28 02:40:00,74.8,67.8,29.84,West,276,2.6,3.5,79,0.00,,,0.00,WeatherDisplay:10.37,2013-08-28 07:40:00,
2013-08-28 02:45:00,74.7,67.8,29.84,West,265,3.3,5.0,79,0.00,,,0.00,WeatherDisplay:10.37,2013-08-28 07:45:00,
2013-08-28 02:50:00,74.6,67.7,29.84,West,263,2.9,4.6,79,0.00,,,0.00,WeatherDisplay:10.37,2013-08-28 07:50:00,
2013-08-28 02:55:00,74.5,67.6,29.84,West,279,3.4,5.8,79,0.00,,,0.00,WeatherDisplay:10.37,2013-08-28 07:55:00,
2013-08-28 03:00:00,74.4,67.5,29.84,West,273,3.0,4.6,79,0.00,,,0.00,WeatherDisplay:10.37,2013-08-28 08:00:00,
2013-08-28 03:05:00,74.3,67.7,29.84,West,264,2.8,3.5,80,0.00,,,0.00,WeatherDisplay:10.37,2013-08-28 08:05:00,
2013-08-28 03:10:00,74.1,67.5,29.84,West,277,3.2,4.6,80,0.00,,,0.00,WeatherDisplay:10.37,2013-08-28 08:10:00,
2013-08-28 03:15:00,73.9,67.7,29.84,West,263,3.2,4.6,81,0.00,,,0.00,WeatherDisplay:10.37,2013-08-28 08:15:00,
2013-08-28 03:20:00,73.7,67.5,29.84,West,276,3.0,4.6,81,0.00,,,0.00,WeatherDisplay:10.37,2013-08-28 08:20:00,
2013-08-28 03:25:00,73.6,67.4,29.84,West,273,2.2,3.5,81,0.00,,,0.00,WeatherDisplay:10.37,2013-08-28 08:25:00,
2013-08-28 03:30:00,73.4,67.6,29.84,West,266,2.0,4.0,82,0.00,,,0.00,WeatherDisplay:10.37,2013-08-28 08:30:00,
2013-08-28 03:35:00,73.3,67.4,29.85,West,265,1.0,5.0,82,0.00,,,0.00,WeatherDisplay:10.37,2013-08-28 08:35:00,
2013-08-28 03:40:00,73.1,67.6,29.85,West,266,1.1,2.3,83,0.00,,,0.00,WeatherDisplay:10.37,2013-08-28 08:40:00,
2013-08-28 03:45:00,72.8,67.3,29.85,West,264,2.2,3.5,83,0.00,,,0.00,WeatherDisplay:10.37,2013-08-28 08:45:00,
2013-08-28 03:50:00,72.5,67.4,29.85,West,262,2.0,2.3,84,0.00,,,0.00,WeatherDisplay:10.37,2013-08-28 08:50:00,
2013-08-28 03:55:00,72.2,67.4,29.85,West,269,2.3,3.5,85,0.00,,,0.00,WeatherDisplay:10.37,2013-08-28 08:55:00,
2013-08-28 04:00:00,72.2,67.4,29.84,WSW,257,2.0,3.5,85,0.00,,,0.00,WeatherDisplay:10.37,2013-08-28 09:00:00,
2013-08-28 04:05:00,72.2,67.4,29.84,West,269,2.4,3.5,85,0.00,,,0.00,WeatherDisplay:10.37,2013-08-28 09:05:00,
2013-08-28 04:10:00,72.1,67.3,29.84,West,260,2.2,3.5,85,0.00,,,0.00,WeatherDisplay:10.37,2013-08-28 09:10:00,
2013-08-28 04:15:00,72.2,67.4,29.84,West,269,2.0,3.5,85,0.00,,,0.00,WeatherDisplay:10.37,2013-08-28 09:15:00,
2013-08-28 04:20:00,72.3,67.5,29.85,West,277,1.9,2.3,85,0.00,,,0.00,WeatherDisplay:10.37,2013-08-28 09:20:00,
2013-08-28 04:25:00,72.5,67.4,29.85,West,272,1.9,3.5,84,0.00,,,0.00,WeatherDisplay:10.37,2013-08-28 09:25:00,
2013-08-28 04:30:00,72.6,67.5,29.85,West,270,2.3,3.5,84,0.00,,,0.00,WeatherDisplay:10.37,2013-08-28 09:30:00,
2013-08-28 04:33:00,72.6,67.5,29.85,West,273,2.4,3.0,84,0.00,,,0.00,WeatherDisplay:10.37,2013-08-28 09:33:00,
2013-08-28 04:39:00,72.7,67.6,29.85,West,278,3.3,3.5,84,0.00,,,0.00,WeatherDisplay:10.37,2013-08-28 09:39:00,
2013-08-28 04:44:00,72.7,67.6,29.85,West,278,2.1,3.5,84,0.00,,,0.00,WeatherDisplay:10.37,2013-08-28 09:44:00,
2013-08-28 04:49:00,72.7,67.2,29.85,WNW,285,2.8,3.5,83,0.00,,,0.00,WeatherDisplay:10.37,2013-08-28 09:49:00,
2013-08-28 04:54:00,72.7,67.2,29.85,West,273,2.3,3.5,83,0.00,,,0.00,WeatherDisplay:10.37,2013-08-28 09:54:00,
2013-08-28 04:59:00,72.5,67.4,29.85,West,270,2.4,3.5,84,0.00,,,0.00,WeatherDisplay:10.37,2013-08-28 09:59:00,
2013-08-28 05:04:00,72.4,67.3,29.85,West,272,2.4,3.5,84,0.00,,,0.00,WeatherDisplay:10.37,2013-08-28 10:04:00,
2013-08-28 05:09:00,72.5,67.4,29.86,West,265,2.0,3.5,84,0.00,,,0.00,WeatherDisplay:10.37,2013-08-28 10:09:00,
2013-08-28 05:14:00,72.4,67.3,29.86,West,262,2.1,3.5,84,0.00,,,0.00,WeatherDisplay:10.37,2013-08-28 10:14:00,
2013-08-28 05:19:00,72.4,67.3,29.86,West,276,2.4,4.6,84,0.00,,,0.00,WeatherDisplay:10.37,2013-08-28 10:19:00,
2013-08-28 05:24:00,72.4,67.3,29.86,West,276,2.4,3.5,84,0.00,,,0.00,WeatherDisplay:10.37,2013-08-28 10:24:00,
2013-08-28 05:29:00,72.4,67.3,29.86,West,281,2.3,3.5,84,0.00,,,0.00,WeatherDisplay:10.37,2013-08-28 10:29:00,
2013-08-28 05:34:00,72.4,67.3,29.86,WNW,285,2.0,2.3,84,0.00,,,0.00,WeatherDisplay:10.37,2013-08-28 10:34:00,
2013-08-28 05:39:00,72.4,67.3,29.87,WNW,282,2.0,3.5,84,0.00,,,0.00,WeatherDisplay:10.37,2013-08-28 10:39:00,
2013-08-28 05:44:00,72.3,67.2,29.87,WNW,284,2.0,2.3,84,0.00,,,0.00,WeatherDisplay:10.37,2013-08-28 10:44:00,
2013-08-28 05:49:00,72.3,67.2,29.87,WNW,284,1.0,1.1,84,0.00,,,0.00,WeatherDisplay:10.37,2013-08-28 10:49:00,
2013-08-28 05:54:00,72.0,66.9,29.87,WNW,284,0.0,0.0,84,0.00,,,0.00,WeatherDisplay:10.37,2013-08-28 10:54:00,
2013-08-28 05:59:00,71.6,66.8,29.87,WNW,284,0.0,0.0,85,0.00,,,0.00,WeatherDisplay:10.37,2013-08-28 10:59:00,
2013-08-28 06:04:00,71.3,66.9,29.88,WNW,284,0.0,0.0,86,0.00,CLR,,0.00,WeatherDisplay:10.37,2013-08-28 11:04:00,
2013-08-28 06:09:00,70.9,66.8,29.88,WNW,284,0.0,0.0,87,0.00,CLR,,0.00,WeatherDisplay:10.37,2013-08-28 11:09:00,
2013-08-28 06:14:00,70.5,66.4,29.88,WNW,284,0.0,0.0,87,0.00,CLR,,0.00,WeatherDisplay:10.37,2013-08-28 11:14:00,
2013-08-28 06:19:00,70.3,66.6,29.88,West,264,0.6,1.1,88,0.00,CLR,,0.00,WeatherDisplay:10.37,2013-08-28 11:19:00,
2013-08-28 06:24:00,70.2,66.8,29.88,SW,232,1.0,2.3,89,0.00,CLR,,0.00,WeatherDisplay:10.37,2013-08-28 11:24:00,
2013-08-28 06:29:00,70.3,66.9,29.88,SW,226,0.6,1.1,89,0.00,CLR,,0.00,WeatherDisplay:10.37,2013-08-28 11:29:00,
2013-08-28 06:34:00,70.5,66.8,29.88,SW,231,1.7,3.5,88,0.00,CLR,,0.00,WeatherDisplay:10.37,2013-08-28 11:34:00,
2013-08-28 06:39:00,70.7,67.0,29.88,WSW,238,1.4,2.3,88,0.00,CLR,,0.00,WeatherDisplay:10.37,2013-08-28 11:39:00,
2013-08-28 06:44:00,70.9,67.2,29.88,SW,235,1.0,1.1,88,0.00,CLR,,0.00,WeatherDisplay:10.37,2013-08-28 11:44:00,
2013-08-28 06:49:00,71.0,67.3,29.89,WSW,245,1.0,2.3,88,0.00,CLR,,0.00,WeatherDisplay:10.37,2013-08-28 11:49:00,
2013-08-28 06:55:00,71.2,67.5,29.89,WSW,250,1.3,2.3,88,0.00,CLR,,0.00,WeatherDisplay:10.37,2013-08-28 11:55:00,
2013-08-28 07:00:00,71.5,67.4,29.89,WSW,243,1.0,1.1,87,0.00,CLR,,0.00,WeatherDisplay:10.37,2013-08-28 12:00:00,
2013-08-28 07:05:00,71.7,67.6,29.89,WSW,238,0.9,1.1,87,0.00,CLR,,0.00,WeatherDisplay:10.37,2013-08-28 12:05:00,
2013-08-28 07:10:00,72.0,67.9,29.89,WSW,255,0.4,2.3,87,0.00,CLR,,0.00,WeatherDisplay:10.37,2013-08-28 12:10:00,
2013-08-28 07:15:00,72.3,68.2,29.89,WSW,250,0.2,1.1,87,0.00,CLR,,0.00,WeatherDisplay:10.37,2013-08-28 12:15:00,
2013-08-28 07:20:00,72.6,68.5,29.90,WSW,250,0.0,0.0,87,0.00,CLR,,0.00,WeatherDisplay:10.37,2013-08-28 12:20:00,
2013-08-28 07:25:00,72.9,68.8,29.89,WSW,253,0.0,0.0,87,0.00,CLR,,0.00,WeatherDisplay:10.37,2013-08-28 12:25:00,
2013-08-28 07:30:00,73.2,69.1,29.89,WSW,253,1.5,2.3,87,0.00,CLR,,0.00,WeatherDisplay:10.37,2013-08-28 12:30:00,
2013-08-28 07:35:00,73.6,69.5,29.89,West,259,1.6,3.5,87,0.00,CLR,,0.00,WeatherDisplay:10.37,2013-08-28 12:35:00,
2013-08-28 07:40:00,74.0,69.5,29.89,West,269,2.1,3.5,86,0.00,CLR,,0.00,WeatherDisplay:10.37,2013-08-28 12:40:00,
2013-08-28 07:45:00,74.4,69.9,29.89,West,262,2.4,3.5,86,0.00,CLR,,0.00,WeatherDisplay:10.37,2013-08-28 12:45:00,
2013-08-28 07:50:00,75.0,70.5,29.89,West,281,2.4,4.0,86,0.00,CLR,,0.00,WeatherDisplay:10.37,2013-08-28 12:50:00,
2013-08-28 07:55:00,75.7,70.9,29.90,WSW,257,2.4,3.5,85,0.00,CLR,,0.00,WeatherDisplay:10.37,2013-08-28 12:55:00,
2013-08-28 08:00:00,76.4,70.5,29.90,West,277,3.1,4.6,82,0.00,CLR,,0.00,WeatherDisplay:10.37,2013-08-28 13:00:00,
2013-08-28 08:05:00,77.0,71.1,29.90,West,281,2.1,3.5,82,0.00,CLR,,0.00,WeatherDisplay:10.37,2013-08-28 13:05:00,
2013-08-28 08:10:00,77.7,71.0,29.90,West,269,3.3,4.6,80,0.00,CLR,,0.00,WeatherDisplay:10.37,2013-08-28 13:10:00,
2013-08-28 08:15:00,78.3,70.9,29.90,WNW,290,4.4,5.0,78,0.00,CLR,,0.00,WeatherDisplay:10.37,2013-08-28 13:15:00,
2013-08-28 08:20:00,78.8,71.4,29.89,West,273,4.0,6.9,78,0.00,CLR,,0.00,WeatherDisplay:10.37,2013-08-28 13:20:00,
2013-08-28 08:25:00,79.2,71.0,29.89,WNW,287,5.4,6.9,76,0.00,CLR,,0.00,WeatherDisplay:10.37,2013-08-28 13:25:00,
2013-08-28 08:30:00,79.5,70.9,29.90,West,278,5.2,6.0,75,0.00,CLR,,0.00,WeatherDisplay:10.37,2013-08-28 13:30:00,
2013-08-28 08:35:00,79.7,71.1,29.90,WNW,290,5.4,7.0,75,0.00,CLR,,0.00,WeatherDisplay:10.37,2013-08-28 13:35:00,
2013-08-28 08:40:00,80.0,71.0,29.90,WNW,287,3.4,5.0,74,0.00,CLR,,0.00,WeatherDisplay:10.37,2013-08-28 13:40:00,
2013-08-28 08:45:00,80.4,71.3,29.90,WNW,296,3.5,3.5,74,0.00,CLR,,0.00,WeatherDisplay:10.37,2013-08-28 13:45:00,
2013-08-28 08:50:00,81.0,71.9,29.90,WNW,286,2.0,3.5,74,0.00,CLR,,0.00,WeatherDisplay:10.37,2013-08-28 13:50:00,
2013-08-28 08:55:00,81.3,71.0,29.90,WNW,285,3.6,5.8,71,0.00,CLR,,0.00,WeatherDisplay:10.37,2013-08-28 13:55:00,
2013-08-28 09:00:00,81.6,71.7,29.90,NW,304,3.9,4.6,72,0.00,CLR,,0.00,WeatherDisplay:10.37,2013-08-28 14:00:00,
2013-08-28 09:05:00,82.0,71.7,29.89,West,264,4.1,4.6,71,0.00,CLR,,0.00,WeatherDisplay:10.37,2013-08-28 14:05:00,
2013-08-28 09:10:00,82.3,71.1,29.89,WNW,297,4.2,6.9,69,0.00,CLR,,0.00,WeatherDisplay:10.37,2013-08-28 14:10:00,
2013-08-28 09:15:00,82.7,72.3,29.89,WNW,296,2.4,4.0,71,0.00,CLR,,0.00,WeatherDisplay:10.37,2013-08-28 14:15:00,
2013-08-28 09:20:00,83.0,71.8,29.89,NW,315,3.8,8.1,69,0.00,CLR,,0.00,WeatherDisplay:10.37,2013-08-28 14:20:00,
2013-08-28 09:25:00,83.1,71.9,29.89,WNW,284,3.9,5.8,69,0.00,CLR,,0.00,WeatherDisplay:10.37,2013-08-28 14:25:00,
2013-08-28 09:30:00,83.0,71.8,29.89,NW,316,5.0,5.8,69,0.00,CLR,,0.00,WeatherDisplay:10.37,2013-08-28 14:30:00,
2013-08-28 09:35:00,83.1,71.9,29.89,WNW,294,6.0,8.0,69,0.00,CLR,,0.00,WeatherDisplay:10.37,2013-08-28 14:35:00,
2013-08-28 09:40:00,83.3,71.6,29.89,WNW,293,5.0,7.0,68,0.00,CLR,,0.00,WeatherDisplay:10.37,2013-08-28 14:40:00,
2013-08-28 09:45:00,83.6,72.4,29.90,WNW,297,3.0,6.0,69,0.00,CLR,,0.00,WeatherDisplay:10.37,2013-08-28 14:45:00,
2013-08-28 09:50:00,83.9,72.6,29.90,NW,304,5.2,5.8,69,0.00,CLR,,0.00,WeatherDisplay:10.37,2013-08-28 14:50:00,
2013-08-28 09:55:00,83.8,73.0,29.90,WNW,296,3.7,4.6,70,0.00,CLR,,0.00,WeatherDisplay:10.37,2013-08-28 14:55:00,
2013-08-28 10:00:00,83.9,73.1,29.90,West,269,3.4,5.8,70,0.00,CLR,,0.00,WeatherDisplay:10.37,2013-08-28 15:00:00,
2013-08-28 10:05:00,84.4,73.5,29.90,WNW,298,3.0,7.0,70,0.00,CLR,,0.00,WeatherDisplay:10.37,2013-08-28 15:05:00,
2013-08-28 10:10:00,84.9,73.2,29.90,WNW,296,2.0,6.0,68,0.00,CLR,,0.00,WeatherDisplay:10.37,2013-08-28 15:10:00,
2013-08-28 10:15:00,85.4,73.6,29.90,WNW,294,2.0,4.0,68,0.00,CLR,,0.00,WeatherDisplay:10.37,2013-08-28 15:15:00,
2013-08-28 10:20:00,85.6,73.8,29.90,NNW,348,3.0,7.0,68,0.00,CLR,,0.00,WeatherDisplay:10.37,2013-08-28 15:20:00,
2013-08-28 10:25:00,85.7,74.4,29.90,NNW,346,3.0,6.0,69,0.00,CLR,,0.00,WeatherDisplay:10.37,2013-08-28 15:25:00,
2013-08-28 10:30:00,85.7,73.9,29.90,WNW,299,3.0,6.0,68,0.00,CLR,,0.00,WeatherDisplay:10.37,2013-08-28 15:30:00,
2013-08-28 10:35:00,85.9,74.1,29.90,WNW,294,2.0,5.0,68,0.00,CLR,,0.00,WeatherDisplay:10.37,2013-08-28 15:35:00,
2013-08-28 10:40:00,86.3,74.5,29.90,WNW,294,2.0,5.0,68,0.00,CLR,,0.00,WeatherDisplay:10.37,2013-08-28 15:40:00,
2013-08-28 10:45:00,86.4,75.5,29.91,West,281,1.0,5.0,70,0.00,CLR,,0.00,WeatherDisplay:10.37,2013-08-28 15:45:00,
2013-08-28 10:50:00,87.2,74.9,29.91,WNW,296,3.2,3.5,67,0.00,CLR,,0.00,WeatherDisplay:10.37,2013-08-28 15:50:00,
2013-08-28 10:55:00,87.1,73.9,29.91,WNW,300,1.5,3.5,65,0.00,CLR,,0.00,WeatherDisplay:10.37,2013-08-28 15:55:00,
2013-08-28 11:00:00,87.3,75.0,29.91,WNW,302,2.0,5.0,67,0.00,CLR,,0.00,WeatherDisplay:10.37,2013-08-28 16:00:00,
2013-08-28 11:05:00,87.4,74.7,29.91,WNW,301,2.0,6.0,66,0.00,CLR,,0.00,WeatherDisplay:10.37,2013-08-28 16:05:00,
2013-08-28 11:10:00,87.9,75.1,29.91,NNW,342,2.8,3.5,66,0.00,CLR,,0.00,WeatherDisplay:10.37,2013-08-28 16:10:00,
2013-08-28 11:15:00,88.4,75.1,29.91,NE,47,0.8,1.1,65,0.00,CLR,,0.00,WeatherDisplay:10.37,2013-08-28 16:15:00,
2013-08-28 11:20:00,88.7,75.4,29.91,West,262,2.6,3.5,65,0.00,CLR,,0.00,WeatherDisplay:10.37,2013-08-28 16:20:00,
2013-08-28 11:25:00,88.3,75.9,29.91,West,269,3.0,4.0,67,0.00,CLR,,0.00,WeatherDisplay:10.37,2013-08-28 16:25:00,
2013-08-28 11:30:00,88.2,75.4,29.91,West,266,1.0,3.0,66,0.00,CLR,,0.00,WeatherDisplay:10.37,2013-08-28 16:30:00,
2013-08-28 11:35:00,88.7,75.9,29.91,West,276,3.0,5.0,66,0.00,CLR,,0.00,WeatherDisplay:10.37,2013-08-28 16:35:00,
2013-08-28 11:40:00,89.0,77.0,29.91,WNW,283,2.0,5.0,68,0.00,CLR,,0.00,WeatherDisplay:10.37,2013-08-28 16:40:00,
2013-08-28 11:45:00,89.4,76.5,29.91,West,277,2.2,4.6,66,0.00,CLR,,0.00,WeatherDisplay:10.37,2013-08-28 16:45:00,
2013-08-28 11:50:00,89.5,76.2,29.91,West,270,3.1,4.6,65,0.00,CLR,,0.00,WeatherDisplay:10.37,2013-08-28 16:50:00,
2013-08-28 11:55:00,89.3,76.9,29.91,West,276,1.0,4.0,67,0.00,CLR,,0.00,WeatherDisplay:10.37,2013-08-28 16:55:00,
2013-08-28 12:00:00,89.5,76.2,29.91,NNW,331,2.0,6.0,65,0.00,CLR,,0.00,WeatherDisplay:10.37,2013-08-28 17:00:00,
2013-08-28 12:05:00,89.5,76.2,29.90,North,7,2.0,6.0,65,0.00,CLR,,0.00,WeatherDisplay:10.37,2013-08-28 17:05:00,
2013-08-28 12:10:00,89.4,77.0,29.90,NNW,348,1.0,4.0,67,0.00,CLR,,0.00,WeatherDisplay:10.37,2013-08-28 17:10:00,
2013-08-28 12:15:00,89.9,77.0,29.90,NNE,33,1.8,3.5,66,0.00,CLR,,0.00,WeatherDisplay:10.37,2013-08-28 17:15:00,
2013-08-28 12:20:00,90.4,77.0,29.91,NW,323,1.4,3.5,65,0.00,CLR,,0.00,WeatherDisplay:10.37,2013-08-28 17:20:00,
2013-08-28 12:25:00,91.1,78.6,29.91,WNW,301,2.0,4.0,67,0.00,CLR,,0.00,WeatherDisplay:10.37,2013-08-28 17:25:00,
2013-08-28 12:30:00,91.6,78.2,29.91,NNW,327,3.0,5.0,65,0.00,CLR,,0.00,WeatherDisplay:10.37,2013-08-28 17:30:00,
2013-08-28 12:35:00,91.5,78.1,29.91,NNW,334,2.0,6.0,65,0.00,CLR,,0.00,WeatherDisplay:10.37,2013-08-28 17:35:00,
2013-08-28 12:40:00,91.3,77.9,29.90,NNW,333,1.0,4.0,65,0.00,CLR,,0.00,WeatherDisplay:10.37,2013-08-28 17:40:00,
2013-08-28 12:45:00,91.4,78.0,29.91,NNW,339,3.2,5.8,65,0.00,CLR,,0.00,WeatherDisplay:10.37,2013-08-28 17:45:00,
2013-08-28 12:50:00,91.6,78.6,29.91,North,6,2.6,3.5,66,0.00,CLR,,0.00,WeatherDisplay:10.37,2013-08-28 17:50:00,
2013-08-28 12:55:00,92.1,78.6,29.90,NNW,346,0.0,4.0,65,0.00,CLR,,0.00,WeatherDisplay:10.37,2013-08-28 17:55:00,
2013-08-28 13:00:00,92.4,78.5,29.91,NNW,345,2.0,4.0,64,0.00,CLR,,0.00,WeatherDisplay:10.37,2013-08-28 18:00:00,
2013-08-28 13:05:00,91.8,78.4,29.91,NNE,18,2.6,4.6,65,0.00,CLR,,0.00,WeatherDisplay:10.37,2013-08-28 18:05:00,
2013-08-28 13:10:00,91.5,78.1,29.91,NNW,346,3.6,5.8,65,0.00,CLR,,0.00,WeatherDisplay:10.37,2013-08-28 18:10:00,
2013-08-28 13:15:00,91.8,79.3,29.90,NE,54,1.6,3.5,67,0.00,CLR,,0.00,WeatherDisplay:10.37,2013-08-28 18:15:00,
2013-08-28 13:20:00,92.5,79.0,29.90,North,3,3.0,6.0,65,0.00,CLR,,0.00,WeatherDisplay:10.37,2013-08-28 18:20:00,
2013-08-28 13:25:00,91.7,78.3,29.90,North,8,1.5,3.0,65,0.00,CLR,,0.00,WeatherDisplay:10.37,2013-08-28 18:25:00,
2013-08-28 13:30:00,91.4,77.9,29.90,North,358,3.0,5.0,65,0.00,CLR,,0.00,WeatherDisplay:10.37,2013-08-28 18:30:00,
2013-08-28 13:35:00,91.0,78.1,29.90,NNE,17,1.0,4.0,66,0.00,CLR,,0.00,WeatherDisplay:10.37,2013-08-28 18:35:00,
2013-08-28 13:40:00,91.5,78.1,29.90,NW,304,0.2,1.1,65,0.00,CLR,,0.00,WeatherDisplay:10.37,2013-08-28 18:40:00,
2013-08-28 13:45:00,91.9,78.4,29.90,West,263,1.3,2.3,65,0.00,CLR,,0.00,WeatherDisplay:10.37,2013-08-28 18:45:00,
2013-08-28 13:50:00,91.8,78.4,29.90,WNW,291,1.4,2.3,65,0.00,CLR,,0.00,WeatherDisplay:10.37,2013-08-28 18:50:00,
2013-08-28 13:55:00,91.3,78.3,29.90,NNE,14,1.4,2.3,66,0.00,CLR,,0.00,WeatherDisplay:10.37,2013-08-28 18:55:00,
2013-08-28 14:00:00,91.6,78.2,29.90,ENE,68,1.3,2.3,65,0.00,CLR,,0.00,WeatherDisplay:10.37,2013-08-28 19:00:00,
2013-08-28 14:05:00,92.7,78.7,29.90,NNW,328,1.1,2.3,64,0.00,CLR,,0.00,WeatherDisplay:10.37,2013-08-28 19:05:00,
2013-08-28 14:10:00,93.0,78.5,29.90,ESE,113,1.0,2.0,63,0.00,CLR,,0.00,WeatherDisplay:10.37,2013-08-28 19:10:00,
2013-08-28 14:15:00,92.7,79.2,29.90,SW,229,1.1,3.0,65,0.00,CLR,,0.00,WeatherDisplay:10.37,2013-08-28 19:15:00,
2013-08-28 14:20:00,92.5,78.5,29.90,NNE,20,1.4,3.5,64,0.00,CLR,,0.00,WeatherDisplay:10.37,2013-08-28 19:20:00,
2013-08-28 14:25:00,92.9,78.0,29.90,NNE,23,1.8,3.5,62,0.00,CLR,,0.00,WeatherDisplay:10.37,2013-08-28 19:25:00,
2013-08-28 14:30:00,93.4,78.4,29.89,SW,225,1.3,3.0,62,0.00,CLR,,0.00,WeatherDisplay:10.37,2013-08-28 19:30:00,
2013-08-28 14:36:00,93.6,78.6,29.89,West,281,1.2,3.5,62,0.00,CLR,,0.00,WeatherDisplay:10.37,2013-08-28 19:36:00,
2013-08-28 14:41:00,93.9,78.9,29.89,WSW,256,1.7,2.3,62,0.00,CLR,,0.00,WeatherDisplay:10.37,2013-08-28 19:41:00,
2013-08-28 14:46:00,94.1,79.1,29.89,WSW,252,0.6,3.5,62,0.00,CLR,,0.00,WeatherDisplay:10.37,2013-08-28 19:46:00,
2013-08-28 14:51:00,94.3,79.8,29.89,SW,214,0.8,3.5,63,0.00,CLR,,0.00,WeatherDisplay:10.37,2013-08-28 19:51:00,
2013-08-28 14:56:00,94.9,79.3,29.89,SE,139,1.0,2.3,61,0.00,CLR,,0.00,WeatherDisplay:10.37,2013-08-28 19:56:00,
2013-08-28 15:01:00,95.7,79.1,29.89,North,5,2.5,3.5,59,0.00,CLR,,0.00,WeatherDisplay:10.37,2013-08-28 20:01:00,
2013-08-28 15:06:00,95.4,79.8,29.89,ENE,63,2.0,2.3,61,0.00,CLR,,0.00,WeatherDisplay:10.37,2013-08-28 20:06:00,
2013-08-28 15:11:00,95.2,79.1,29.89,North,1,1.5,3.5,60,0.00,CLR,,0.00,WeatherDisplay:10.37,2013-08-28 20:11:00,
2013-08-28 15:16:00,95.1,79.5,29.89,ENE,61,1.8,3.5,61,0.00,CLR,,0.00,WeatherDisplay:10.37,2013-08-28 20:16:00,
2013-08-28 15:21:00,94.5,79.0,29.89,North,358,2.4,3.5,61,0.00,CLR,,0.00,WeatherDisplay:10.37,2013-08-28 20:21:00,
2013-08-28 15:26:00,94.6,80.0,29.89,NE,56,1.6,2.3,63,0.00,CLR,,0.00,WeatherDisplay:10.37,2013-08-28 20:26:00,
2013-08-28 15:31:00,94.2,79.2,29.89,NE,35,2.0,3.5,62,0.00,CLR,,0.00,WeatherDisplay:10.37,2013-08-28 20:31:00,
2013-08-28 15:36:00,93.5,79.0,29.89,North,1,1.5,2.3,63,0.00,CLR,,0.00,WeatherDisplay:10.37,2013-08-28 20:36:00,
2013-08-28 15:41:00,93.7,78.2,29.89,NNE,29,2.7,3.5,61,0.00,CLR,,0.00,WeatherDisplay:10.37,2013-08-28 20:41:00,
2013-08-28 15:46:00,93.9,78.9,29.89,NW,313,1.4,3.5,62,0.00,CLR,,0.00,WeatherDisplay:10.37,2013-08-28 20:46:00,
2013-08-28 15:51:00,94.2,78.7,29.89,North,9,2.1,3.5,61,0.00,CLR,,0.00,WeatherDisplay:10.37,2013-08-28 20:51:00,
2013-08-28 15:56:00,94.6,80.0,29.89,North,6,2.9,4.0,63,0.00,CLR,,0.00,WeatherDisplay:10.37,2013-08-28 20:56:00,
2013-08-28 16:01:00,94.3,79.3,29.89,NE,44,1.2,3.5,62,0.00,CLR,,0.00,WeatherDisplay:10.37,2013-08-28 21:01:00,
2013-08-28 16:06:00,94.3,79.3,29.89,North,6,3.4,4.0,62,0.00,CLR,,0.00,WeatherDisplay:10.37,2013-08-28 21:06:00,
2013-08-28 16:11:00,93.8,78.3,29.89,North,11,2.8,4.6,61,0.00,CLR,,0.00,WeatherDisplay:10.37,2013-08-28 21:11:00,
2013-08-28 16:16:00,93.5,77.5,29.89,NNE,27,4.1,4.6,60,0.00,CLR,,0.00,WeatherDisplay:10.37,2013-08-28 21:16:00,
2013-08-28 16:21:00,93.4,77.9,29.89,NNE,22,1.2,2.0,61,0.00,CLR,,0.00,WeatherDisplay:10.37,2013-08-28 21:21:00,
2013-08-28 16:26:00,93.9,78.4,29.89,ENE,77,2.0,3.5,61,0.00,CLR,,0.00,WeatherDisplay:10.37,2013-08-28 21:26:00,
2013-08-28 16:31:00,94.1,79.6,29.89,North,11,1.7,3.5,63,0.00,CLR,,0.00,WeatherDisplay:10.37,2013-08-28 21:31:00,
2013-08-28 16:36:00,94.4,79.9,29.89,NE,42,1.7,2.3,63,0.00,CLR,,0.00,WeatherDisplay:10.37,2013-08-28 21:36:00,
2013-08-28 16:41:00,93.2,78.7,29.90,NE,50,1.7,2.3,63,0.00,CLR,,0.00,WeatherDisplay:10.37,2013-08-28 21:41:00,
2013-08-28 16:46:00,93.1,80.0,29.89,NE,43,1.6,3.0,66,0.00,CLR,,0.00,WeatherDisplay:10.37,2013-08-28 21:46:00,
2013-08-28 16:51:00,92.7,78.7,29.90,NE,39,1.3,2.3,64,0.00,CLR,,0.00,WeatherDisplay:10.37,2013-08-28 21:51:00,
2013-08-28 16:56:00,92.8,79.8,29.90,NE,43,0.7,1.1,66,0.00,CLR,,0.00,WeatherDisplay:10.37,2013-08-28 21:56:00,
2013-08-28 17:01:00,93.5,80.4,29.90,NNE,19,2.2,3.0,66,0.00,CLR,,0.00,WeatherDisplay:10.37,2013-08-28 22:01:00,
2013-08-28 17:06:00,93.7,80.2,29.89,NW,314,2.7,3.5,65,0.00,CLR,,0.00,WeatherDisplay:10.37,2013-08-28 22:06:00,
2013-08-28 17:11:00,92.9,79.9,29.89,NE,37,0.7,2.3,66,0.00,CLR,,0.00,WeatherDisplay:10.37,2013-08-28 22:11:00,
2013-08-28 17:16:00,92.1,80.0,29.90,NNE,32,0.3,1.1,68,0.00,CLR,,0.00,WeatherDisplay:10.37,2013-08-28 22:16:00,
2013-08-28 17:21:00,92.3,79.8,29.89,NNE,20,1.5,3.5,67,0.00,CLR,,0.00,WeatherDisplay:10.37,2013-08-28 22:21:00,
2013-08-28 17:26:00,92.3,79.8,29.90,NE,48,1.2,2.3,67,0.00,CLR,,0.00,WeatherDisplay:10.37,2013-08-28 22:26:00,
2013-08-28 17:31:00,92.2,79.7,29.89,NE,54,3.5,4.6,67,0.00,CLR,,0.00,WeatherDisplay:10.37,2013-08-28 22:31:00,
2013-08-28 17:36:00,91.8,79.7,29.89,ENE,74,3.6,4.6,68,0.00,CLR,,0.00,WeatherDisplay:10.37,2013-08-28 22:36:00,
2013-08-28 17:41:00,91.5,79.4,29.90,NE,56,3.0,3.5,68,0.00,CLR,,0.00,WeatherDisplay:10.37,2013-08-28 22:41:00,
2013-08-28 17:46:00,90.9,79.3,29.90,ENE,72,5.0,8.1,69,0.00,CLR,,0.00,WeatherDisplay:10.37,2013-08-28 22:46:00,
2013-08-28 17:51:00,90.6,79.9,29.90,NE,50,4.0,5.8,71,0.00,CLR,,0.00,WeatherDisplay:10.37,2013-08-28 22:51:00,
2013-08-28 17:56:00,90.3,80.0,29.90,East,94,3.9,4.6,72,0.00,CLR,,0.00,WeatherDisplay:10.37,2013-08-28 22:56:00,
2013-08-28 18:01:00,89.9,80.1,29.90,ENE,67,2.8,4.6,73,0.00,CLR,,0.00,WeatherDisplay:10.37,2013-08-28 23:01:00,
2013-08-28 18:06:00,89.5,79.7,29.90,NE,36,2.3,4.6,73,0.00,CLR,,0.00,WeatherDisplay:10.37,2013-08-28 23:06:00,
2013-08-28 18:11:00,89.2,79.8,29.90,NE,56,3.2,4.6,74,0.00,CLR,,0.00,WeatherDisplay:10.37,2013-08-28 23:11:00,
2013-08-28 18:16:00,89.0,79.2,29.90,East,82,4.6,6.9,73,0.00,CLR,,0.00,WeatherDisplay:10.37,2013-08-28 23:16:00,
2013-08-28 18:21:00,88.8,79.4,29.90,ENE,57,4.1,5.8,74,0.00,CLR,,0.00,WeatherDisplay:10.37,2013-08-28 23:21:00,
2013-08-28 18:26:00,88.5,79.6,29.90,NE,50,3.9,6.9,75,0.00,CLR,,0.00,WeatherDisplay:10.37,2013-08-28 23:26:00,
2013-08-28 18:31:00,88.2,79.3,29.90,NE,45,7.1,10.4,75,0.00,CLR,,0.00,WeatherDisplay:10.37,2013-08-28 23:31:00,
2013-08-28 18:36:00,87.7,79.2,29.91,ENE,75,5.0,6.9,76,0.00,CLR,,0.00,WeatherDisplay:10.37,2013-08-28 23:36:00,
2013-08-28 18:41:00,87.2,78.7,29.91,East,83,5.6,10.4,76,0.00,CLR,,0.00,WeatherDisplay:10.37,2013-08-28 23:41:00,
2013-08-28 18:46:00,86.6,78.5,29.91,ENE,68,7.1,11.5,77,0.00,CLR,,0.00,WeatherDisplay:10.37,2013-08-28 23:46:00,
2013-08-28 18:52:00,86.0,78.3,29.91,ENE,72,5.4,8.1,78,0.00,CLR,,0.00,WeatherDisplay:10.37,2013-08-28 23:52:00,
2013-08-28 18:57:00,85.5,78.2,29.91,ENE,65,5.5,8.1,79,0.00,CLR,,0.00,WeatherDisplay:10.37,2013-08-28 23:57:00,
2013-08-28 19:02:00,85.1,77.8,29.91,East,94,5.8,8.1,79,0.00,CLR,,0.00,WeatherDisplay:10.37,2013-08-29 00:02:00,
2013-08-28 19:07:00,84.7,77.5,29.91,East,99,4.9,6.9,79,0.00,CLR,,0.00,WeatherDisplay:10.37,2013-08-29 00:07:00,
2013-08-28 19:12:00,84.3,77.5,29.92,East,89,4.4,6.9,80,0.00,CLR,,0.00,WeatherDisplay:10.37,2013-08-29 00:12:00,
2013-08-28 19:17:00,83.9,77.4,29.91,NE,49,4.0,4.6,81,0.00,CLR,,0.00,WeatherDisplay:10.37,2013-08-29 00:17:00,
2013-08-28 19:22:00,83.6,77.1,29.92,ENE,61,5.1,8.1,81,0.00,CLR,,0.00,WeatherDisplay:10.37,2013-08-29 00:22:00,
2013-08-28 19:27:00,83.2,77.1,29.91,ENE,64,4.9,7.0,82,0.00,CLR,,0.00,WeatherDisplay:10.37,2013-08-29 00:27:00,
2013-08-28 19:32:00,82.8,76.7,29.92,ENE,59,3.2,4.6,82,0.00,CLR,,0.00,WeatherDisplay:10.37,2013-08-29 00:32:00,
2013-08-28 19:37:00,82.5,76.8,29.92,East,81,3.1,6.9,83,0.00,CLR,,0.00,WeatherDisplay:10.37,2013-08-29 00:37:00,
2013-08-28 19:42:00,82.2,76.5,29.92,East,79,3.3,4.6,83,0.00,CLR,,0.00,WeatherDisplay:10.37,2013-08-29 00:42:00,
2013-08-28 19:47:00,81.8,76.5,29.92,SSE,148,4.1,5.8,84,0.00,CLR,,0.00,WeatherDisplay:10.37,2013-08-29 00:47:00,
2013-08-28 19:52:00,81.6,76.3,29.92,ENE,68,4.3,7.0,84,0.00,CLR,,0.00,WeatherDisplay:10.37,2013-08-29 00:52:00,
2013-08-28 19:57:00,81.4,76.1,29.92,ENE,67,5.0,6.0,84,0.00,CLR,,0.00,WeatherDisplay:10.37,2013-08-29 00:57:00,
2013-08-28 20:02:00,81.2,75.9,29.93,ENE,76,4.1,5.8,84,0.00,,,0.00,WeatherDisplay:10.37,2013-08-29 01:02:00,
2013-08-28 20:07:00,81.0,75.7,29.93,NE,37,4.5,5.8,84,0.00,,,0.00,WeatherDisplay:10.37,2013-08-29 01:07:00,
2013-08-28 20:12:00,80.9,75.6,29.93,ESE,115,3.8,4.6,84,0.00,,,0.00,WeatherDisplay:10.37,2013-08-29 01:12:00,
2013-08-28 20:17:00,80.7,75.4,29.93,ENE,70,2.2,3.5,84,0.00,,,0.00,WeatherDisplay:10.37,2013-08-29 01:17:00,
2013-08-28 20:22:00,80.5,75.6,29.93,ENE,67,1.5,2.3,85,0.00,,,0.00,WeatherDisplay:10.37,2013-08-29 01:22:00,
2013-08-28 20:27:00,80.4,75.5,29.93,ENE,65,3.0,3.5,85,0.00,,,0.00,WeatherDisplay:10.37,2013-08-29 01:27:00,
2013-08-28 20:32:00,80.2,75.3,29.94,ENE,71,2.7,4.0,85,0.00,,,0.00,WeatherDisplay:10.37,2013-08-29 01:32:00,
2013-08-28 20:37:00,80.0,75.4,29.94,NE,43,3.0,4.0,86,0.00,,,0.00,WeatherDisplay:10.37,2013-08-29 01:37:00,
2013-08-28 20:42:00,79.8,75.2,29.94,ENE,68,3.1,5.8,86,0.00,,,0.00,WeatherDisplay:10.37,2013-08-29 01:42:00,
2013-08-28 20:47:00,79.7,75.1,29.94,East,101,2.7,3.5,86,0.00,,,0.00,WeatherDisplay:10.37,2013-08-29 01:47:00,
2013-08-28 20:52:00,79.6,75.0,29.94,East,95,2.3,3.5,86,0.00,,,0.00,WeatherDisplay:10.37,2013-08-29 01:52:00,
2013-08-28 20:57:00,79.5,75.3,29.95,East,85,2.2,3.5,87,0.00,,,0.00,WeatherDisplay:10.37,2013-08-29 01:57:00,
2013-08-28 21:02:00,79.4,75.2,29.94,ENE,76,1.1,2.3,87,0.00,,,0.00,WeatherDisplay:10.37,2013-08-29 02:02:00,
2013-08-28 21:07:00,79.2,75.0,29.94,ESE,102,0.0,1.1,87,0.00,,,0.00,WeatherDisplay:10.37,2013-08-29 02:07:00,
2013-08-28 21:12:00,79.0,75.1,29.94,East,81,1.2,2.3,88,0.00,,,0.00,WeatherDisplay:10.37,2013-08-29 02:12:00,
2013-08-28 21:17:00,78.8,74.9,29.95,ENE,74,0.1,1.0,88,0.00,,,0.00,WeatherDisplay:10.37,2013-08-29 02:17:00,
2013-08-28 21:22:00,78.6,74.7,29.95,ESE,110,0.6,1.1,88,0.00,,,0.00,WeatherDisplay:10.37,2013-08-29 02:22:00,
2013-08-28 21:27:00,78.4,74.9,29.95,ESE,110,0.2,1.1,89,0.00,,,0.00,WeatherDisplay:10.37,2013-08-29 02:27:00,
2013-08-28 21:32:00,78.3,74.8,29.95,East,86,1.3,2.3,89,0.00,,,0.00,WeatherDisplay:10.37,2013-08-29 02:32:00,
2013-08-28 21:37:00,78.3,74.8,29.95,ENE,71,2.4,3.5,89,0.00,,,0.00,WeatherDisplay:10.37,2013-08-29 02:37:00,
2013-08-28 21:42:00,78.2,74.7,29.95,ENE,76,0.3,1.1,89,0.00,,,0.00,WeatherDisplay:10.37,2013-08-29 02:42:00,
2013-08-28 21:47:00,78.2,74.7,29.95,ENE,72,1.1,2.3,89,0.00,,,0.00,WeatherDisplay:10.37,2013-08-29 02:47:00,
2013-08-28 21:52:00,78.2,74.7,29.95,ENE,74,1.0,2.0,89,0.00,,,0.00,WeatherDisplay:10.37,2013-08-29 02:52:00,
2013-08-28 21:58:00,78.3,74.8,29.95,East,81,2.0,3.5,89,0.00,,,0.00,WeatherDisplay:10.37,2013-08-29 02:58:00,
2013-08-28 22:03:00,78.2,74.7,29.95,ENE,70,0.0,0.0,89,0.00,,,0.00,WeatherDisplay:10.37,2013-08-29 03:03:00,
2013-08-28 22:08:00,78.0,74.5,29.95,ENE,70,0.3,1.1,89,0.00,,,0.00,WeatherDisplay:10.37,2013-08-29 03:08:00,
2013-08-28 22:14:00,77.9,74.4,29.95,ENE,70,0.0,0.0,89,0.00,,,0.00,WeatherDisplay:10.37,2013-08-29 03:14:00,
2013-08-28 22:19:00,77.8,74.6,29.95,ENE,70,0.4,1.1,90,0.00,,,0.00,WeatherDisplay:10.37,2013-08-29 03:19:00,
2013-08-28 22:24:00,77.7,74.5,29.95,East,98,0.5,2.3,90,0.00,,,0.00,WeatherDisplay:10.37,2013-08-29 03:24:00,
2013-08-28 22:29:00,77.5,74.3,29.96,East,97,0.0,0.0,90,0.00,,,0.00,WeatherDisplay:10.37,2013-08-29 03:29:00,
2013-08-28 22:34:00,77.5,74.7,29.96,East,91,1.0,1.1,91,0.00,,,0.00,WeatherDisplay:10.37,2013-08-29 03:34:00,
2013-08-28 22:39:00,77.5,74.7,29.95,East,82,0.0,1.1,91,0.00,,,0.00,WeatherDisplay:10.37,2013-08-29 03:39:00,
2013-08-28 22:45:00,77.3,74.1,29.95,ESE,105,0.8,1.1,90,0.00,,,0.00,WeatherDisplay:10.37,2013-08-29 03:45:00,
2013-08-28 22:50:00,76.9,74.1,29.95,ESE,115,1.0,1.1,91,0.00,,,0.00,WeatherDisplay:10.37,2013-08-29 03:50:00,
2013-08-28 22:55:00,76.4,73.9,29.95,ESE,115,0.0,0.0,92,0.00,,,0.00,WeatherDisplay:10.37,2013-08-29 03:55:00,
2013-08-28 23:00:00,76.2,73.7,29.96,ESE,115,0.0,0.0,92,0.00,,,0.00,WeatherDisplay:10.37,2013-08-29 04:00:00,
2013-08-28 23:01:00,76.2,73.7,29.96,ESE,115,0.0,0.0,92,0.00,,,0.00,WeatherDisplay:10.37,2013-08-29 04:01:00,
2013-08-28 23:02:00,76.2,74.0,29.95,ESE,116,0.0,0.0,93,0.00,,,0.00,WeatherDisplay:10.37,2013-08-29 04:02:00,
2013-08-28 23:03:00,76.2,73.7,29.95,ESE,115,0.0,0.0,92,0.00,,,0.00,WeatherDisplay:10.37,2013-08-29 04:03:00,
2013-08-28 23:07:00,76.2,74.0,29.95,ESE,113,1.1,2.3,93,0.00,,,0.00,WeatherDisplay:10.37,2013-08-29 04:07:00,
2013-08-28 23:09:00,76.3,74.1,29.95,ESE,110,0.8,2.3,93,0.00,,,0.00,WeatherDisplay:10.37,2013-08-29 04:09:00,
2013-08-28 23:14:00,76.5,74.0,29.95,East,79,1.0,2.3,92,0.00,,,0.00,WeatherDisplay:10.37,2013-08-29 04:14:00,
2013-08-28 23:19:00,76.7,74.2,29.95,East,79,0.2,1.1,92,0.00,,,0.00,WeatherDisplay:10.37,2013-08-29 04:19:00,
2013-08-28 23:24:00,76.8,74.3,29.96,NE,54,1.2,2.3,92,0.00,,,0.00,WeatherDisplay:10.37,2013-08-29 04:24:00,
2013-08-28 23:30:00,76.7,73.9,29.96,ENE,58,1.6,3.5,91,0.00,,,0.00,WeatherDisplay:10.37,2013-08-29 04:30:00,
2013-08-28 23:35:00,76.5,73.7,29.96,ENE,58,1.0,3.0,91,0.00,,,0.00,WeatherDisplay:10.37,2013-08-29 04:35:00,
2013-08-28 23:40:00,76.3,73.5,29.96,ENE,70,0.0,3.0,91,0.00,,,0.00,WeatherDisplay:10.37,2013-08-29 04:40:00,
2013-08-28 23:45:00,76.1,73.3,29.96,East,91,1.0,3.0,91,0.00,,,0.00,WeatherDisplay:10.37,2013-08-29 04:45:00,
2013-08-28 23:50:00,75.8,73.3,29.95,ESE,118,2.0,2.3,92,0.00,,,0.00,WeatherDisplay:10.37,2013-08-29 04:50:00,
2013-08-28 23:55:00,75.7,73.2,29.95,East,96,3.9,5.8,92,0.00,,,0.00,WeatherDisplay:10.37,2013-08-29 04:55:00,